[[{"header":{"parameterUnit":"m.s-1","parameterCategory":1,"la1":30.2991,"la2":30.254,"lo1":-89.0895,"lo2":-89.0444,"dy":0.0017,"dx":0.0017,"nx":28,"ny":28,"refTime":"2023-07-23T03:00:00:Z","depth":0,"parameterNumber":2,"parameterNumberName":"U-component_of_WINDS"},"data":[0,0,0,0,0,0,0,0,0,0,0,0,0,0,0,0,0,0,0,0,0,0,0,0,0,0,0,0,0,0,0,0,0,0,0,0,0,0,0,0,0,0,0,0,0,0,0,0,0,0,0,0,0,0,0,0,0,0,0.6323,0.6324,0,0.6416,0.6417,0.6418,0.6463,0.6463,0.6463,0.6463,0.6557,0.6559,0.6562,0,0,0,0,0,0,0,0,0,0,0,0,0,0.6183,0.6185,0.6323,0.6324,0.6325,0.6416,0.6417,0.6418,0.6463,0.6463,0.6463,0.6463,0.6556,0.6559,0.6562,0,0,0,0,0,0,0,0,0,0,0,0,0,0.6256,0.6186,0.6323,0.6359,0.6363,0.6415,0.6417,0.6419,0.6463,0.6463,0.6463,0.6463,0.6555,0.6559,0.6562,0.6587,0,0,0.6574,0.6576,0,0,0,0,0,0,0,0,0.6252,0.6262,0.6352,0.6356,0.6361,0.6428,0.6402,0.6475,0.6463,0.6425,0.6463,0.6463,0.6514,0.6521,0.6538,0.6591,0.6595,0.6574,0.6577,0.6578,0.6579,0,0,0,0,0,0,0,0.6247,0.6258,0.636,0.6353,0.6359,0.6369,0.638,0.6416,0.6468,0.6428,0.6431,0.6442,0.6516,0.6535,0.6541,0.6596,0.6574,0.6578,0.658,0.6581,0.6672,0.6673,0,0,0,0,0,0,0.6236,0.6253,0.6357,0.6363,0.6305,0.6372,0.6384,0.6406,0.6468,0.6477,0.6442,0.6444,0.6528,0.6537,0.6544,0.6577,0.6578,0.6582,0.6584,0.6672,0.6673,0.6673,0,0,0,0,0,0,0.6233,0.6245,0.6353,0.6309,0.6324,0.6374,0.64,0.6408,0.6427,0.6479,0.6488,0.6451,0.6529,0.6539,0.6576,0.658,0.6584,0.6587,0.6672,0.6672,0.6673,0.6641,0,0,0,0,0,0,0.6229,0.6244,0.6254,0.6309,0.6326,0.6383,0.64,0.641,0.6433,0.6436,0.649,0.6499,0.6529,0.657,0.6579,0.6586,0.659,0.6672,0.6672,0.6673,0.6642,0.664,0.6638,0,0,0,0,0,0.6224,0.6241,0.6254,0.6267,0.634,0.6383,0.6393,0.6428,0.6433,0.6444,0.6477,0.6497,0.6578,0.6573,0.6584,0.6592,0.6672,0.6672,0.6673,0.6642,0.664,0.6638,0,0,0,0,0,0,0.6186,0.6249,0.6264,0.63,0.6336,0.6391,0.6405,0.6425,0.646,0.6461,0.6503,0.6515,0.6547,0.6573,0.6567,0.6618,0.6627,0.6629,0.66,0.6598,0.6597,0.659,0.6593,0,0,0,0,0,0.6182,0.6212,0.6266,0.6292,0.631,0.6354,0.6374,0.6398,0.6437,0.6452,0.6488,0.6525,0.6558,0.658,0.6614,0.6645,0.6657,0.6656,0.6654,0.6653,0.6654,0.6672,0.6672,0.6674,0.6674,0.6674,0,0,0.6173,0.6212,0.6229,0.6286,0.6316,0.6347,0.6367,0.6398,0.6421,0.6457,0.6494,0.6521,0.6564,0.6598,0.6615,0.6621,0.6656,0.6653,0.6651,0.6654,0.6673,0.6672,0.6672,0.6674,0.6674,0.6674,0,0,0.6174,0.6206,0.6231,0.6261,0.6307,0.6337,0.6342,0.6394,0.6414,0.6451,0.6479,0.6506,0.6563,0.6593,0.6615,0.6625,0.6645,0.6635,0.6627,0.6644,0.6643,0.6644,0.6647,0.6647,0.6637,0.6637,0.6636,0,0.6157,0.6205,0.6242,0.6272,0.6295,0.6329,0.6355,0.6382,0.6437,0.6452,0.6458,0.653,0.6561,0.6602,0.6605,0.6622,0.6629,0.663,0.6641,0.6641,0.6642,0.6645,0.6646,0.6635,0.6635,0.6635,0.6636,0,0.6182,0.6215,0.6229,0.6281,0.6307,0.6334,0.6374,0.6396,0.6417,0.6445,0.6482,0.6521,0.6563,0.6574,0.6596,0.6618,0.662,0.6633,0.6642,0.6639,0.6643,0.6645,0.6633,0.6633,0.6634,0.6634,0,0,0.6163,0.6234,0.6238,0.6262,0.6314,0.634,0.6368,0.6409,0.6426,0.6462,0.6487,0.6534,0.6545,0.6571,0.6595,0.661,0.6615,0.6621,0.6622,0.6618,0.6641,0.6632,0.6633,0.6628,0.6628,0.6628,0.6638,0,0.617,0.6224,0.6257,0.6296,0.6326,0.6358,0.6383,0.6417,0.6444,0.6472,0.6502,0.6534,0.6547,0.6563,0.6579,0.6611,0.662,0.661,0.6651,0.6652,0.6639,0.6635,0.6625,0.6632,0.6639,0.664,0.664,0,0.6187,0.6222,0.6264,0.6313,0.6326,0.6348,0.6388,0.6415,0.6454,0.6472,0.65,0.6525,0.6555,0.6562,0.6604,0.6597,0.6615,0.6633,0.6634,0.6639,0.6646,0.664,0.6635,0.6636,0.6643,0.6643,0.6642,0,0.6168,0.6226,0.6258,0.6277,0.6335,0.6349,0.6373,0.6412,0.6435,0.6469,0.6484,0.6521,0.6542,0.657,0.6603,0.6605,0.6642,0.6652,0.6658,0.6657,0.6665,0.6664,0.6663,0.6676,0.6676,0.6676,0.6676,0,0.6173,0.6198,0.625,0.6271,0.6299,0.6336,0.6363,0.639,0.6424,0.6449,0.6479,0.6502,0.6545,0.6573,0.6599,0.663,0.6639,0.6654,0.6661,0.6652,0.665,0.6665,0.6665,0.6676,0.6676,0.6676,0.6676,0,0.6157,0.6194,0.6231,0.6282,0.6295,0.6314,0.6357,0.6377,0.6405,0.6436,0.6446,0.649,0.6524,0.656,0.6607,0.6625,0.6654,0.6663,0.6641,0.6645,0.6649,0.6648,0.6657,0.666,0.6671,0.6671,0.6671,0,0.6159,0.6178,0.6231,0.625,0.6274,0.6304,0.6327,0.6364,0.6386,0.6431,0.6446,0.6483,0.6514,0.6567,0.6603,0.6638,0.6649,0.665,0.6655,0.6644,0.6649,0.6647,0.6649,0.6648,0.6648,0.6648,0.6648,0,0.6157,0.6174,0.6205,0.6243,0.6269,0.63,0.6333,0.6347,0.639,0.6413,0.6449,0.6473,0.652,0.6556,0.6596,0.662,0.6641,0.6645,0.6649,0.664,0.6626,0.6633,0.6637,0.6645,0.6646,0.6646,0.6646,0.6646,0.615,0.6168,0.6208,0.6242,0.627,0.63,0.6321,0.6351,0.6381,0.6423,0.6443,0.6478,0.6515,0.6571,0.6595,0.6622,0.6629,0.6633,0.6635,0.6635,0.6633,0.6621,0.663,0.663,0.663,0.663,0.663,0,0.615,0.6176,0.6207,0.6252,0.6278,0.6295,0.6331,0.6352,0.6383,0.6416,0.6446,0.6486,0.652,0.6558,0.6595,0.661,0.662,0.6618,0.6617,0.6623,0.6625,0.6619,0.6609,0.6609,0.6609,0.6609,0.6609,0.6609,0.6153,0.6185,0.6206,0.6252,0.6278,0.6313,0.6332,0.6359,0.6386,0.643,0.6458,0.6483,0.6517,0.6556,0.6588,0.6599,0.6611,0.6606,0.6619,0.6621,0.6622,0.6624,0.6618,0.6608,0.6608,0.6614,0.6614,0.6614]},{"header":{"parameterUnit":"m.s-1","parameterCategory":1,"la1":30.2991,"la2":30.254,"lo1":-89.0895,"lo2":-89.0444,"dy":0.0017,"dx":0.0017,"nx":28,"ny":28,"refTime":"2023-07-23T03:00:00:Z","depth":0,"parameterNumber":3,"parameterNumberName":"V-component_of_WINDS"},"data":[0,0,0,0,0,0,0,0,0,0,0,0,0,0,0,0,0,0,0,0,0,0,0,0,0,0,0,0,0,0,0,0,0,0,0,0,0,0,0,0,0,0,0,0,0,0,0,0,0,0,0,0,0,0,0,0,0,0,4.1221,4.122,0,4.1171,4.117,4.117,4.1104,4.1102,4.1101,4.11,4.1048,4.1047,4.1047,0,0,0,0,0,0,0,0,0,0,0,0,0,4.1258,4.1258,4.1221,4.122,4.122,4.1171,4.117,4.117,4.1104,4.1102,4.1101,4.11,4.1048,4.1047,4.1047,0,0,0,0,0,0,0,0,0,0,0,0,0,4.1228,4.1257,4.1221,4.1181,4.1177,4.1171,4.117,4.1169,4.1104,4.1102,4.1101,4.1099,4.1048,4.1047,4.1047,4.1076,0,0,4.1045,4.1045,0,0,0,0,0,0,0,0,4.123,4.1227,4.1188,4.1184,4.1179,4.1142,4.1164,4.1138,4.1104,4.1132,4.11,4.1098,4.108,4.1077,4.1071,4.1073,4.1071,4.1045,4.1044,4.1044,4.1044,0,0,0,0,0,0,0,4.1232,4.1229,4.1201,4.1187,4.1182,4.1165,4.1159,4.1159,4.1116,4.1129,4.1124,4.1119,4.1077,4.1072,4.1069,4.107,4.1045,4.1044,4.1044,4.1044,4.1093,4.1094,0,0,0,0,0,0,4.124,4.1231,4.1203,4.12,4.1201,4.1166,4.1159,4.1155,4.1115,4.1108,4.1121,4.1116,4.1073,4.107,4.1067,4.1098,4.1044,4.1044,4.1043,4.1091,4.1093,4.1095,0,0,0,0,0,0,4.1241,4.1239,4.1205,4.1214,4.1208,4.1167,4.1163,4.1155,4.1149,4.1109,4.1101,4.1123,4.1072,4.1068,4.1074,4.1095,4.1043,4.1043,4.1089,4.1092,4.1094,4.116,0,0,0,0,0,0,4.1243,4.1239,4.125,4.1215,4.1208,4.1213,4.1165,4.1156,4.1149,4.1143,4.1109,4.1102,4.107,4.1075,4.1073,4.1093,4.1042,4.1087,4.109,4.1093,4.1156,4.1164,4.1172,0,0,0,0,0,4.1244,4.1271,4.1251,4.1248,4.1221,4.1215,4.1211,4.1175,4.1151,4.1161,4.1135,4.1103,4.1093,4.1076,4.1074,4.1094,4.1086,4.1089,4.1093,4.1152,4.1163,4.1172,0,0,0,0,0,0,4.1309,4.1265,4.1243,4.1259,4.1241,4.1203,4.1215,4.1187,4.1175,4.117,4.1125,4.1118,4.113,4.1112,4.1094,4.1119,4.1084,4.1088,4.113,4.114,4.1148,4.1152,4.1042,0,0,0,0,0,4.1326,4.1324,4.1286,4.1303,4.1295,4.1257,4.1253,4.1227,4.1206,4.1198,4.1173,4.1154,4.1146,4.1142,4.1133,4.1153,4.1144,4.1165,4.1174,4.118,4.1184,4.1192,4.1201,4.1107,4.1107,4.1107,0,0,4.1359,4.1335,4.1336,4.1316,4.1299,4.1298,4.1251,4.1253,4.1251,4.1198,4.1202,4.1183,4.1159,4.1172,4.1176,4.1158,4.1208,4.1185,4.1191,4.119,4.1197,4.1206,4.1214,4.111,4.1109,4.1109,0,0,4.1419,4.1401,4.1413,4.1397,4.1373,4.1347,4.135,4.1317,4.1302,4.1306,4.1266,4.1263,4.1252,4.1236,4.1226,4.1281,4.125,4.1279,4.1321,4.133,4.1337,4.1343,4.1362,4.1369,4.1283,4.1283,4.1283,0,4.1463,4.1461,4.1423,4.1427,4.1418,4.1371,4.1383,4.1369,4.1343,4.1338,4.1318,4.1302,4.1282,4.129,4.1304,4.1298,4.1299,4.1282,4.1339,4.1345,4.135,4.1368,4.1375,4.1286,4.1286,4.1286,4.1285,0,4.1516,4.1516,4.1528,4.1504,4.1498,4.1506,4.1468,4.1466,4.144,4.1417,4.1421,4.1396,4.138,4.138,4.1356,4.1385,4.1374,4.1348,4.1311,4.1364,4.1379,4.1385,4.1292,4.129,4.1289,4.1288,0,0,4.1615,4.1571,4.1576,4.1564,4.1534,4.1532,4.1537,4.1523,4.1522,4.1505,4.1508,4.1499,4.1474,4.1463,4.1436,4.1444,4.1488,4.1416,4.1414,4.1429,4.1518,4.1538,4.1546,4.1468,4.1469,4.147,4.1519,0,4.1669,4.1676,4.1642,4.1658,4.1657,4.1612,4.1616,4.1598,4.1576,4.1571,4.1546,4.1541,4.1508,4.1501,4.1507,4.1481,4.1505,4.1477,4.1469,4.1469,4.1476,4.1554,4.1575,4.1624,4.1525,4.1526,4.1527,0,4.1732,4.172,4.1736,4.1704,4.1702,4.1707,4.1691,4.1687,4.1665,4.1648,4.1637,4.1605,4.1608,4.1574,4.1576,4.1558,4.1553,4.154,4.154,4.1538,4.1501,4.1553,4.1638,4.1645,4.1536,4.1536,4.1535,0,4.1802,4.1789,4.1797,4.1788,4.1752,4.1756,4.1741,4.1717,4.1711,4.1697,4.1692,4.1678,4.167,4.166,4.1626,4.1605,4.1632,4.1595,4.1617,4.1618,4.1624,4.1624,4.1709,4.1622,4.1622,4.1622,4.1622,0,4.1865,4.1877,4.1828,4.1832,4.1843,4.1804,4.1816,4.1796,4.1776,4.1775,4.1736,4.1736,4.1691,4.1686,4.1659,4.1665,4.1662,4.1648,4.164,4.1651,4.1652,4.1646,4.1641,4.1624,4.1624,4.1623,4.1623,0,4.1945,4.1912,4.1918,4.1883,4.1874,4.1884,4.1854,4.1856,4.1832,4.1832,4.183,4.1792,4.1784,4.1749,4.1732,4.1714,4.1728,4.1714,4.1736,4.1731,4.1755,4.1753,4.1838,4.1847,4.1755,4.1756,4.1757,0,4.1987,4.1994,4.196,4.1958,4.1944,4.194,4.1934,4.1895,4.189,4.1865,4.187,4.1859,4.1849,4.1838,4.1808,4.1795,4.178,4.1811,4.1778,4.1788,4.1779,4.1779,4.1779,4.1818,4.1819,4.182,4.1821,0,4.2064,4.2048,4.204,4.2027,4.202,4.2008,4.1993,4.1992,4.195,4.1945,4.1937,4.1929,4.1912,4.1902,4.1884,4.1867,4.1837,4.1832,4.1836,4.1846,4.1858,4.1851,4.1755,4.1829,4.1829,4.1828,4.1827,4.1827,4.2125,4.213,4.2107,4.2099,4.2084,4.2071,4.2072,4.2048,4.2041,4.2025,4.2002,4.1997,4.1974,4.1947,4.1933,4.1927,4.191,4.1917,4.1918,4.192,4.1925,4.186,4.1924,4.1924,4.1923,4.1923,4.1923,0,4.22,4.2183,4.2177,4.2157,4.2151,4.2124,4.2106,4.2103,4.2099,4.208,4.2071,4.2061,4.205,4.202,4.2006,4.2008,4.1993,4.2005,4.2004,4.2001,4.1941,4.1939,4.2017,4.2017,4.2017,4.2017,4.2017,4.2017,4.2238,4.2244,4.2226,4.2224,4.2206,4.2201,4.2193,4.2181,4.2166,4.2157,4.2148,4.2129,4.2105,4.2089,4.2078,4.2069,4.2066,4.2082,4.2069,4.2014,4.2005,4.1996,4.1993,4.2082,4.2082,4.2128,4.2129,4.2129]}]]